THY5SF LTFM-LTAR

Flight info

Callsign THY5SF
Flight time 1h 7m
Altitude 37000
Route VICEN UT380 ASMAP UL333 LATGA UT363 GURBU UL615 OLPOT
Aircraft B38M/M-SDE1FGHILORVWXY/HB1

Departure

Time 2026-04-26 20:40
Airport İstanbul Airport (LTFM)

Arrival

Time 2026-04-26 21:48
Airport Sivas Nuri Demirağ Airport (LTAR)
Time Latitude Longitude Altitude Speed Heading
2026-04-26 20:08 41.26212 28.74855 336 ft 0 kts 251°
2026-04-26 20:27 41.26212 28.74856 336 ft 1 kts 251°
2026-04-26 20:27 41.26220 28.74885 332 ft 4 kts 247°
2026-04-26 20:27 41.26231 28.74917 331 ft 4 kts 242°
2026-04-26 20:28 41.26245 28.74948 335 ft 4 kts 237°
2026-04-26 20:28 41.26261 28.74977 331 ft 4 kts 228°
2026-04-26 20:28 41.26281 28.75000 334 ft 4 kts 207°
2026-04-26 20:28 41.26290 28.75006 323 ft 2 kts 196°
2026-04-26 20:31 41.26288 28.75005 323 ft 1 kts 196°
2026-04-26 20:32 41.26269 28.75001 334 ft 4 kts 180°
2026-04-26 20:32 41.26244 28.75025 341 ft 5 kts 109°
2026-04-26 20:32 41.26242 28.75083 336 ft 8 kts 89°
2026-04-26 20:32 41.26243 28.75164 336 ft 10 kts 88°
2026-04-26 20:33 41.26245 28.75268 336 ft 12 kts 89°
2026-04-26 20:33 41.26265 28.75381 333 ft 10 kts 40°
2026-04-26 20:33 41.26316 28.75391 333 ft 9 kts 359°
2026-04-26 20:33 41.26385 28.75389 335 ft 11 kts 358°
2026-04-26 20:34 41.26469 28.75387 336 ft 13 kts 359°
2026-04-26 20:34 41.26570 28.75384 333 ft 16 kts 359°
2026-04-26 20:34 41.26687 28.75381 332 ft 18 kts 359°
2026-04-26 20:34 41.26806 28.75379 336 ft 18 kts 359°
2026-04-26 20:35 41.26937 28.75375 332 ft 20 kts 359°
2026-04-26 20:35 41.27067 28.75373 335 ft 18 kts 359°
2026-04-26 20:35 41.27200 28.75369 335 ft 20 kts 359°
2026-04-26 20:35 41.27348 28.75366 333 ft 22 kts 359°
2026-04-26 20:36 41.27510 28.75362 332 ft 24 kts 359°
2026-04-26 20:36 41.27659 28.75358 336 ft 17 kts 358°
2026-04-26 20:36 41.27784 28.75355 335 ft 19 kts 359°
2026-04-26 20:36 41.27924 28.75353 333 ft 21 kts 358°
2026-04-26 20:37 41.28073 28.75349 335 ft 23 kts 359°
2026-04-26 20:37 41.28237 28.75345 335 ft 24 kts 359°
2026-04-26 20:37 41.28414 28.75341 337 ft 26 kts 359°
2026-04-26 20:37 41.28581 28.75337 337 ft 23 kts 359°
2026-04-26 20:38 41.28736 28.75334 336 ft 15 kts 359°
2026-04-26 20:38 41.28813 28.75351 337 ft 2 kts 41°
2026-04-26 20:38 41.28817 28.75371 334 ft 3 kts 87°
2026-04-26 20:38 41.28816 28.75410 335 ft 6 kts 91°
2026-04-26 20:39 41.28817 28.75472 335 ft 8 kts 89°
2026-04-26 20:39 41.28817 28.75526 333 ft 10 kts 89°
2026-04-26 20:39 41.28795 28.75623 334 ft 7 kts 160°
2026-04-26 20:39 41.28741 28.75623 333 ft 9 kts 179°
2026-04-26 20:40 41.28585 28.75626 333 ft 54 kts 179°
2026-04-26 20:40 41.27920 28.75638 337 ft 134 kts 179°
2026-04-26 20:40 41.26806 28.75637 539 ft 182 kts 181°
2026-04-26 20:40 41.25464 28.75659 1452 ft 195 kts 182°
2026-04-26 20:41 41.24071 28.75936 2364 ft 214 kts 162°
2026-04-26 20:41 41.22780 28.77116 3034 ft 239 kts 127°
2026-04-26 20:41 41.21773 28.78960 3819 ft 259 kts 133°
2026-04-26 20:41 41.20305 28.80433 4770 ft 273 kts 144°
2026-04-26 20:42 41.18668 28.81742 6104 ft 273 kts 159°
2026-04-26 20:42 41.16772 28.82145 7095 ft 283 kts 182°
2026-04-26 20:42 41.14757 28.82053 8027 ft 295 kts 183°
2026-04-26 20:42 41.12733 28.81952 9253 ft 294 kts 183°
2026-04-26 20:43 41.10688 28.81839 10384 ft 297 kts 183°
2026-04-26 20:43 41.08578 28.81712 11147 ft 311 kts 184°
2026-04-26 20:43 41.06368 28.81575 11840 ft 325 kts 184°
2026-04-26 20:43 41.04073 28.81430 12620 ft 335 kts 184°
2026-04-26 20:44 41.01747 28.81282 13634 ft 336 kts 185°
2026-04-26 20:44 40.99378 28.81132 14363 ft 344 kts 185°
2026-04-26 20:44 40.96982 28.80986 15197 ft 346 kts 183°
2026-04-26 20:44 40.94563 28.81286 15957 ft 353 kts 173°
2026-04-26 20:45 40.92117 28.81739 16726 ft 357 kts 174°
2026-04-26 20:45 40.89638 28.82149 17504 ft 361 kts 175°
2026-04-26 20:45 40.87135 28.82543 18249 ft 365 kts 175°
2026-04-26 20:45 40.84601 28.82929 18893 ft 368 kts 175°
2026-04-26 20:46 40.82044 28.83311 19542 ft 371 kts 175°
2026-04-26 20:46 40.79464 28.83694 20192 ft 374 kts 175°
2026-04-26 20:46 40.76865 28.84078 20813 ft 378 kts 175°
2026-04-26 20:46 40.74241 28.84465 21434 ft 381 kts 175°
2026-04-26 20:47 40.71597 28.84854 22042 ft 384 kts 175°
2026-04-26 20:47 40.70697 28.84987 22247 ft 385 kts 175°
2026-04-26 20:47 40.66271 28.85958 23239 ft 393 kts 160°
2026-04-26 20:47 40.63813 28.87554 23806 ft 396 kts 153°
2026-04-26 20:48 40.61349 28.89231 24232 ft 401 kts 154°
2026-04-26 20:48 40.58996 28.91201 24731 ft 404 kts 139°
2026-04-26 20:48 40.57162 28.93995 25219 ft 407 kts 121°
2026-04-26 20:48 40.56044 28.97408 25660 ft 409 kts 103°
2026-04-26 20:49 40.55708 29.01116 26098 ft 410 kts 88°
2026-04-26 20:49 40.55798 29.04878 26527 ft 414 kts 86°
2026-04-26 20:49 40.55920 29.08670 26972 ft 416 kts 86°
2026-04-26 20:49 40.55964 29.09904 27123 ft 417 kts 86°
2026-04-26 20:50 40.56097 29.13346 27518 ft 419 kts 86°
2026-04-26 20:50 40.56306 29.17130 27940 ft 421 kts 81°
2026-04-26 20:50 40.56692 29.20960 28361 ft 424 kts 81°
2026-04-26 20:50 40.57063 29.24827 28770 ft 427 kts 82°
2026-04-26 20:51 40.57424 29.28715 29196 ft 430 kts 82°
2026-04-26 20:51 40.57782 29.32629 29601 ft 433 kts 82°
2026-04-26 20:51 40.58141 29.36572 30015 ft 435 kts 82°
2026-04-26 20:51 40.58500 29.40533 30364 ft 438 kts 82°
2026-04-26 20:52 40.58872 29.44516 30698 ft 440 kts 82°
2026-04-26 20:52 40.59248 29.48522 31037 ft 442 kts 82°
2026-04-26 20:52 40.59624 29.52549 31376 ft 444 kts 82°
2026-04-26 20:52 40.59878 29.55277 31593 ft 446 kts 82°
2026-04-26 20:53 40.60376 29.60662 32019 ft 449 kts 82°
2026-04-26 20:53 40.60631 29.63423 32244 ft 451 kts 82°
2026-04-26 20:53 40.61008 29.67528 32566 ft 453 kts 82°
2026-04-26 20:53 40.61385 29.71653 32883 ft 455 kts 82°
2026-04-26 20:54 40.61763 29.75797 33182 ft 458 kts 82°
2026-04-26 20:54 40.62136 29.79911 33502 ft 459 kts 82°
2026-04-26 20:54 40.62514 29.84091 33805 ft 462 kts 82°
2026-04-26 20:54 40.62892 29.88294 34150 ft 462 kts 82°
2026-04-26 20:55 40.63269 29.92492 34523 ft 461 kts 82°
2026-04-26 20:55 40.63643 29.96680 34889 ft 460 kts 82°
2026-04-26 20:55 40.64015 30.00866 35223 ft 460 kts 82°
2026-04-26 20:55 40.64385 30.05044 35563 ft 460 kts 82°
2026-04-26 20:56 40.64753 30.09225 35887 ft 459 kts 82°
2026-04-26 20:56 40.65120 30.13402 36200 ft 459 kts 82°
2026-04-26 20:56 40.65485 30.17575 36495 ft 459 kts 82°
2026-04-26 20:56 40.65847 30.21746 36797 ft 458 kts 82°
2026-04-26 20:57 40.66210 30.25918 37020 ft 459 kts 82°
2026-04-26 20:57 40.66189 30.34273 37050 ft 459 kts 95°
2026-04-26 20:58 40.65532 30.42636 37042 ft 460 kts 95°
2026-04-26 20:58 40.64841 30.50995 37032 ft 459 kts 95°
2026-04-26 20:59 40.64140 30.59342 37050 ft 458 kts 95°
2026-04-26 20:59 40.63434 30.67684 37043 ft 458 kts 95°
2026-04-26 21:00 40.62131 30.75875 37050 ft 459 kts 105°
2026-04-26 21:00 40.60433 30.83969 37058 ft 459 kts 105°
2026-04-26 21:01 40.58720 30.92056 37055 ft 459 kts 105°
2026-04-26 21:01 40.57013 31.00084 37072 ft 459 kts 105°
2026-04-26 21:02 40.55288 31.08165 37072 ft 459 kts 105°
2026-04-26 21:02 40.53559 31.16230 37077 ft 458 kts 105°
2026-04-26 21:03 40.51824 31.24289 37076 ft 459 kts 105°
2026-04-26 21:03 40.50069 31.32406 37071 ft 459 kts 105°
2026-04-26 21:04 40.48333 31.40402 37082 ft 458 kts 105°
2026-04-26 21:04 40.46581 31.48449 37078 ft 458 kts 105°
2026-04-26 21:05 40.44830 31.56473 37067 ft 457 kts 105°
2026-04-26 21:05 40.43075 31.64490 37076 ft 457 kts 105°
2026-04-26 21:06 40.41314 31.72500 37067 ft 457 kts 105°
2026-04-26 21:06 40.39549 31.80498 37078 ft 457 kts 105°
2026-04-26 21:07 40.37779 31.88494 37069 ft 456 kts 105°
2026-04-26 21:07 40.36000 31.96482 37067 ft 456 kts 105°
2026-04-26 21:08 40.34210 32.04460 37063 ft 456 kts 106°
2026-04-26 21:08 40.32546 32.12475 37066 ft 455 kts 103°
2026-04-26 21:09 40.30970 32.20516 37070 ft 456 kts 104°
2026-04-26 21:09 40.29376 32.28554 37056 ft 456 kts 104°
2026-04-26 21:10 40.27775 32.36586 37058 ft 456 kts 104°
2026-04-26 21:10 40.26170 32.44610 37049 ft 455 kts 104°
2026-04-26 21:11 40.24575 32.52552 37064 ft 455 kts 104°
2026-04-26 21:11 40.22963 32.60544 37044 ft 454 kts 104°
2026-04-26 21:12 40.21346 32.68536 37049 ft 454 kts 104°
2026-04-26 21:12 40.19723 32.76520 37049 ft 454 kts 104°
2026-04-26 21:13 40.18097 32.84494 37041 ft 454 kts 104°
2026-04-26 21:13 40.16474 32.92418 37049 ft 454 kts 104°
2026-04-26 21:14 40.14915 33.00407 37034 ft 452 kts 96°
2026-04-26 21:14 40.14931 33.08585 36995 ft 451 kts 87°
2026-04-26 21:14 40.15020 33.12675 36754 ft 449 kts 86°
2026-04-26 21:15 40.15125 33.16747 36481 ft 447 kts 86°
2026-04-26 21:15 40.15237 33.20804 36209 ft 446 kts 86°
2026-04-26 21:15 40.15351 33.24840 35958 ft 444 kts 86°
2026-04-26 21:15 40.15463 33.28865 35698 ft 442 kts 86°
2026-04-26 21:16 40.15574 33.32873 35441 ft 441 kts 86°
2026-04-26 21:16 40.15682 33.36857 35187 ft 435 kts 86°
2026-04-26 21:16 40.15788 33.40759 34930 ft 426 kts 86°
2026-04-26 21:16 40.15890 33.44602 34579 ft 420 kts 86°
2026-04-26 21:17 40.15990 33.48390 34227 ft 414 kts 86°
2026-04-26 21:17 40.16087 33.52128 33863 ft 409 kts 86°
2026-04-26 21:17 40.16181 33.55812 33458 ft 403 kts 86°
2026-04-26 21:17 40.16274 33.59455 33082 ft 398 kts 86°
2026-04-26 21:18 40.16363 33.63039 32708 ft 392 kts 86°
2026-04-26 21:18 40.16451 33.66582 32344 ft 387 kts 86°
2026-04-26 21:18 40.16537 33.70088 31990 ft 387 kts 86°
2026-04-26 21:18 40.16622 33.73629 31633 ft 390 kts 86°
2026-04-26 21:19 40.16707 33.77172 31290 ft 390 kts 86°
2026-04-26 21:19 40.16790 33.80706 30947 ft 388 kts 86°
2026-04-26 21:19 40.16747 33.84216 30597 ft 387 kts 97°
2026-04-26 21:19 40.16236 33.87659 30270 ft 385 kts 99°
2026-04-26 21:20 40.15766 33.91097 29921 ft 383 kts 98°
2026-04-26 21:20 40.15296 33.94522 29533 ft 381 kts 98°
2026-04-26 21:20 40.14928 33.97939 29155 ft 379 kts 96°
2026-04-26 21:20 40.14572 34.01338 28795 ft 377 kts 96°
2026-04-26 21:21 40.14210 34.04720 28429 ft 375 kts 96°
2026-04-26 21:21 40.13846 34.08081 28086 ft 372 kts 96°
2026-04-26 21:21 40.13483 34.11422 27970 ft 371 kts 96°
2026-04-26 21:21 40.13118 34.14768 27981 ft 372 kts 96°
2026-04-26 21:22 40.12752 34.18111 27985 ft 372 kts 96°
2026-04-26 21:22 40.12384 34.21461 27987 ft 372 kts 97°
2026-04-26 21:22 40.12016 34.24806 27986 ft 372 kts 97°
2026-04-26 21:23 40.11277 34.31499 27986 ft 372 kts 97°
2026-04-26 21:23 40.10911 34.34800 27985 ft 372 kts 97°
2026-04-26 21:23 40.10539 34.38140 27986 ft 372 kts 97°
2026-04-26 21:23 40.10166 34.41480 27985 ft 372 kts 97°
2026-04-26 21:24 40.09793 34.44817 27988 ft 372 kts 97°
2026-04-26 21:24 40.09419 34.48155 27990 ft 371 kts 97°
2026-04-26 21:24 40.09043 34.51496 27957 ft 371 kts 97°
2026-04-26 21:24 40.08668 34.54827 27976 ft 371 kts 97°
2026-04-26 21:25 40.08290 34.58166 27985 ft 371 kts 97°
2026-04-26 21:25 40.07912 34.61496 27986 ft 371 kts 97°
2026-04-26 21:25 40.07533 34.64833 27988 ft 371 kts 97°
2026-04-26 21:25 40.07153 34.68167 27994 ft 371 kts 97°
2026-04-26 21:26 40.06772 34.71500 27989 ft 371 kts 97°
2026-04-26 21:26 40.06391 34.74831 27988 ft 371 kts 97°
2026-04-26 21:26 40.06009 34.78157 27990 ft 371 kts 97°
2026-04-26 21:26 40.05625 34.81489 27988 ft 371 kts 97°
2026-04-26 21:27 40.05242 34.84815 27988 ft 371 kts 97°
2026-04-26 21:27 40.04856 34.88142 27987 ft 371 kts 97°
2026-04-26 21:27 40.04471 34.91468 27988 ft 371 kts 97°
2026-04-26 21:27 40.04085 34.94787 27989 ft 371 kts 97°
2026-04-26 21:28 40.03697 34.98111 27990 ft 370 kts 97°
2026-04-26 21:28 40.03308 35.01434 27989 ft 370 kts 97°
2026-04-26 21:28 40.02918 35.04756 27987 ft 370 kts 97°
2026-04-26 21:28 40.02528 35.08075 27987 ft 370 kts 97°
2026-04-26 21:29 40.02143 35.11348 27984 ft 370 kts 97°
2026-04-26 21:29 40.01751 35.14663 27985 ft 370 kts 97°
2026-04-26 21:29 40.01353 35.18023 27988 ft 370 kts 97°
2026-04-26 21:29 40.00966 35.21288 27991 ft 370 kts 97°
2026-04-26 21:30 40.00572 35.24605 27988 ft 370 kts 97°
2026-04-26 21:30 40.00177 35.27915 27984 ft 370 kts 97°
2026-04-26 21:30 39.99782 35.31224 27965 ft 370 kts 97°
2026-04-26 21:30 39.99514 35.33466 27880 ft 369 kts 97°
2026-04-26 21:31 39.98974 35.37837 27640 ft 368 kts 98°
2026-04-26 21:31 39.98560 35.41123 27294 ft 366 kts 98°
2026-04-26 21:31 39.98150 35.44391 26910 ft 364 kts 98°
2026-04-26 21:31 39.97740 35.47645 26509 ft 363 kts 98°
2026-04-26 21:32 39.97330 35.50891 26101 ft 362 kts 98°
2026-04-26 21:32 39.96921 35.54127 25695 ft 362 kts 98°
2026-04-26 21:32 39.96511 35.57361 25286 ft 362 kts 98°
2026-04-26 21:32 39.96100 35.60597 24887 ft 361 kts 98°
2026-04-26 21:33 39.95690 35.63823 24477 ft 361 kts 99°
2026-04-26 21:33 39.95278 35.67046 24081 ft 360 kts 99°
2026-04-26 21:33 39.94867 35.70263 23671 ft 359 kts 99°
2026-04-26 21:33 39.94456 35.73471 23209 ft 358 kts 99°
2026-04-26 21:34 39.94047 35.76660 22770 ft 356 kts 99°
2026-04-26 21:34 39.93639 35.79825 22367 ft 353 kts 99°
2026-04-26 21:34 39.93235 35.82964 21965 ft 349 kts 99°
2026-04-26 21:34 39.92838 35.86029 21586 ft 346 kts 99°
2026-04-26 21:35 39.92439 35.89111 21195 ft 344 kts 99°
2026-04-26 21:35 39.92043 35.92166 20809 ft 341 kts 99°
2026-04-26 21:35 39.91646 35.95206 20389 ft 340 kts 100°
2026-04-26 21:35 39.91251 35.98232 20014 ft 337 kts 100°
2026-04-26 21:36 39.90859 36.01228 19652 ft 335 kts 100°
2026-04-26 21:36 39.90594 36.03244 19398 ft 333 kts 100°
2026-04-26 21:36 39.90078 36.07170 18905 ft 331 kts 100°
2026-04-26 21:36 39.89691 36.10116 18539 ft 330 kts 100°
2026-04-26 21:37 39.89303 36.13050 18121 ft 328 kts 100°
2026-04-26 21:37 39.88917 36.15975 17711 ft 326 kts 100°
2026-04-26 21:37 39.88532 36.18876 17321 ft 324 kts 100°
2026-04-26 21:37 39.88150 36.21752 16947 ft 321 kts 100°
2026-04-26 21:38 39.87771 36.24606 16579 ft 319 kts 100°
2026-04-26 21:38 39.87388 36.27439 16202 ft 317 kts 101°
2026-04-26 21:38 39.86976 36.30254 15793 ft 316 kts 101°
2026-04-26 21:38 39.86568 36.33045 15439 ft 313 kts 102°
2026-04-26 21:39 39.85992 36.35757 15018 ft 311 kts 118°
2026-04-26 21:39 39.84769 36.38025 14679 ft 304 kts 131°
2026-04-26 21:39 39.83439 36.40152 14352 ft 302 kts 131°
2026-04-26 21:39 39.82109 36.42259 14004 ft 301 kts 131°
2026-04-26 21:40 39.80776 36.44349 13618 ft 299 kts 132°
2026-04-26 21:40 39.79444 36.46426 13232 ft 298 kts 132°
2026-04-26 21:40 39.78119 36.48485 12863 ft 296 kts 132°
2026-04-26 21:40 39.77244 36.49843 12630 ft 295 kts 132°
2026-04-26 21:41 39.75506 36.52534 12162 ft 292 kts 132°
2026-04-26 21:41 39.74203 36.54551 11806 ft 291 kts 132°
2026-04-26 21:41 39.72909 36.56552 11451 ft 288 kts 132°
2026-04-26 21:41 39.71620 36.58544 11094 ft 288 kts 132°
2026-04-26 21:42 39.70350 36.60505 10893 ft 280 kts 132°
2026-04-26 21:42 39.69103 36.62427 10609 ft 276 kts 132°
2026-04-26 21:42 39.68274 36.63707 10461 ft 272 kts 132°
2026-04-26 21:42 39.67068 36.65565 10244 ft 266 kts 132°
2026-04-26 21:43 39.65888 36.67385 10007 ft 261 kts 132°
2026-04-26 21:43 39.64827 36.69258 9574 ft 266 kts 116°
2026-04-26 21:43 39.64454 36.71591 9199 ft 266 kts 89°
2026-04-26 21:43 39.64508 36.73980 8904 ft 263 kts 89°
2026-04-26 21:44 39.64548 36.76331 8655 ft 257 kts 89°
2026-04-26 21:44 39.64588 36.78592 8433 ft 244 kts 89°
2026-04-26 21:44 39.64669 36.80771 8234 ft 241 kts 79°
2026-04-26 21:44 39.65363 36.82676 8054 ft 231 kts 47°
2026-04-26 21:45 39.66551 36.83969 7890 ft 219 kts 30°
2026-04-26 21:45 39.67903 36.84756 7665 ft 209 kts 17°
2026-04-26 21:45 39.69268 36.85290 7430 ft 202 kts 15°
2026-04-26 21:45 39.70577 36.85821 7217 ft 190 kts 17°
2026-04-26 21:46 39.71767 36.86322 6988 ft 171 kts 17°
2026-04-26 21:46 39.72890 36.86792 6801 ft 169 kts 17°
2026-04-26 21:46 39.74006 36.87260 6574 ft 168 kts 17°
2026-04-26 21:46 39.75113 36.87723 6367 ft 167 kts 17°
2026-04-26 21:47 39.76216 36.88174 6110 ft 165 kts 17°
2026-04-26 21:47 39.77303 36.88629 5859 ft 163 kts 19°
2026-04-26 21:47 39.78383 36.89088 5609 ft 162 kts 19°
2026-04-26 21:47 39.79429 36.89513 5341 ft 153 kts 20°
2026-04-26 21:48 39.80382 36.89924 5237 ft 125 kts 18°
2026-04-26 21:48 39.81001 36.90186 5229 ft 69 kts 18°
2026-04-26 21:48 39.81319 36.90317 5222 ft 35 kts 18°
2026-04-26 21:48 39.81556 36.90414 5216 ft 36 kts 17°
2026-04-26 21:49 39.81791 36.90513 5212 ft 36 kts 19°
2026-04-26 21:49 39.81933 36.90585 5213 ft 7 kts 49°
2026-04-26 21:49 39.81976 36.90636 5212 ft 9 kts 25°
2026-04-26 21:49 39.82012 36.90626 5211 ft 1 kts 304°
2026-04-26 21:50 39.82013 36.90613 5211 ft 3 kts 264°
2026-04-26 21:50 39.81978 36.90586 5212 ft 10 kts 194°
2026-04-26 21:50 39.81902 36.90558 5212 ft 12 kts 197°
2026-04-26 21:50 39.81814 36.90522 5212 ft 14 kts 197°
2026-04-26 21:51 39.81722 36.90484 5214 ft 14 kts 198°
2026-04-26 21:51 39.81628 36.90444 5215 ft 15 kts 198°
2026-04-26 21:51 39.81522 36.90400 5217 ft 18 kts 197°
2026-04-26 21:51 39.81396 36.90348 5220 ft 21 kts 197°
2026-04-26 21:52 39.81247 36.90286 5223 ft 24 kts 197°
2026-04-26 21:52 39.81076 36.90216 5225 ft 27 kts 199°
2026-04-26 21:52 39.80885 36.90133 5232 ft 31 kts 197°
2026-04-26 21:52 39.80668 36.90045 5233 ft 35 kts 198°
2026-04-26 21:53 39.80438 36.89949 5236 ft 35 kts 198°
2026-04-26 21:53 39.80212 36.89854 5241 ft 33 kts 198°
2026-04-26 21:53 39.80096 36.89785 5242 ft 14 kts 233°
2026-04-26 21:53 39.80104 36.89671 5244 ft 14 kts 292°
2026-04-26 21:54 39.80138 36.89547 5243 ft 15 kts 289°
2026-04-26 21:54 39.80151 36.89471 5243 ft 8 kts 282°
2026-04-26 21:54 39.80164 36.89416 5243 ft 0 kts 289°